Location: Unspecified
(41.4057°N, 2.1753°E)
Time: 00:40:15
(UTC+02:00)

ISS - Visible Passes

Search period start: 26 May 2016 00:00
Search period end: 05 June 2016 00:00
Orbit: 402 x 404 km, 51.6° (Epoch: 25 May)

Date Brightness Start Highest point End Pass type
(mag) Time Alt. Az. Time Alt. Az. Time Alt. Az.
26 May -0.6 01:25:55 19° NNW 01:26:15 20° NNW 01:28:44 10° NNE visible
26 May 0.0 03:01:50 10° NNW 03:03:38 14° N 03:05:25 10° NE visible
26 May -1.0 04:38:04 10° NW 04:40:55 26° NNE 04:43:44 10° E visible
26 May -3.2 22:53:35 10° SW 22:56:44 46° SE 22:59:53 10° ENE visible
27 May -1.1 00:30:27 10° W 00:33:18 27° NNW 00:36:08 10° NE visible
27 May 0.0 02:08:46 10° NW 02:10:34 14° N 02:12:22 10° NNE visible
27 May -0.4 03:45:29 10° NNW 03:47:57 19° NNE 03:50:25 10° ENE visible
27 May -3.3 05:21:30 10° NW 05:24:46 86° NNE 05:28:02 10° SE visible
27 May -2.2 22:01:25 10° S 22:04:06 24° SE 22:06:48 10° ENE visible
27 May -2.0 23:37:18 10° W 23:40:24 41° NNW 23:43:31 10° NE visible
28 May -0.1 01:15:29 10° NW 01:17:30 15° N 01:19:32 10° NNE visible
28 May -0.1 02:52:49 10° NNW 02:54:56 16° N 02:57:02 10° NE visible
28 May -2.2 04:28:49 10° NW 04:31:59 47° NNE 04:35:08 10° ESE visible
28 May -3.1 22:44:19 10° WSW 22:47:34 73° NW 22:50:51 10° NE visible
29 May -0.4 00:22:06 10° WNW 00:24:28 18° NNW 00:26:51 10° NNE visible
29 May 0.0 02:00:02 10° NNW 02:01:52 14° N 02:03:43 10° NE visible
29 May -1.3 03:36:10 10° NW 03:39:07 29° NNE 03:42:01 10° E visible
29 May -2.9 05:12:31 10° WNW 05:15:36 39° SW 05:18:39 10° SSE visible
29 May -3.3 21:51:38 10° SW 21:54:50 58° SE 21:58:03 10° ENE visible
29 May -0.8 23:28:44 10° WNW 23:31:29 24° NNW 23:34:14 10° NE visible
30 May 0.1 01:07:01 10° NW 01:08:47 14° N 01:10:34 10° NNE visible
30 May -0.7 02:43:34 10° NNW 02:46:09 21° NNE 02:48:43 10° ENE visible
30 May -3.5 04:19:39 10° WNW 04:22:54 78° SW 04:26:09 10° SE visible
30 May -1.6 22:35:30 10° W 22:38:33 35° NNW 22:41:36 10° NE visible
31 May 0.0 00:13:46 10° NW 00:15:42 15° N 00:17:39 10° NNE visible
31 May -0.3 01:50:55 10° NNW 01:53:08 17° NNE 01:55:20 10° NE visible
31 May -1.6 03:26:54 10° NW 03:28:39 28° NW 03:28:39 28° NW visible
31 May -0.2 23:20:22 10° WNW 23:22:39 17° NNW 23:24:54 10° NNE visible
01 Jun -0.1 00:58:10 10° NNW 01:00:04 14° N 01:01:58 10° NE visible
01 Jun -1.0 02:34:14 10° NW 02:35:54 23° NNW 02:35:54 23° NNW visible
01 Jun -0.6 22:26:59 10° WNW 22:29:37 22° NNW 22:32:16 10° NE visible
02 Jun -0.1 00:05:12 10° NNW 00:06:58 14° N 00:08:44 10° NNE visible
02 Jun -0.9 01:41:36 10° NW 01:44:07 23° NNE 01:44:07 23° NNE visible
02 Jun -0.2 23:11:59 10° NW 23:13:51 14° N 23:15:44 10° NNE visible
03 Jun -0.6 00:48:57 10° NNW 00:51:16 18° NNE 00:52:37 14° NE visible
03 Jun -0.3 02:24:56 10° NW 02:25:11 12° NW 02:25:11 12° NW visible
03 Jun -0.3 22:18:36 10° NW 22:20:46 16° NNW 22:22:56 10° NNE visible
03 Jun -0.3 23:56:13 10° NNW 23:58:12 15° N 00:00:11 10° NE visible
04 Jun -1.0 01:32:15 10° NW 01:33:51 24° NNW 01:33:51 24° NNW visible
04 Jun -0.3 23:03:18 10° NNW 23:05:05 14° N 23:06:52 10° NE visible
